Regional Weather Roundup
Issued by NWS

Home | Current Version | Previous Version | Graphics & Text | Print | Product List | Glossary On
Versions: 1 2 3 4 5 6 7 8 9 10 11 12 13 14 15 16 17 18 19 20 21 22 23 24 25 26 27
000
ASUS45 KTFX 250110
RWRMT
MONTANA REGIONAL WEATHER ROUNDUP
NATIONAL WEATHER SERVICE GREAT FALLS MT
600 PM MST SAT FEB 24 2018

NOTE: "FAIR" INDICATES FEW OR NO CLOUDS BELOW 12000 FEET WITH NO
SIGNIFICANT WEATHER AND/OR OBSTRUCTIONS TO VISIBILITY.

MTZ001>007-043-250200-
WEST OF THE DIVIDE

CITY           SKY/WX    TMP DP  RH WIND       PRES   REMARKS
KALISPELL      CLOUDY    25  20  81 S8        29.82S WCI  16
MISSOULA       CLOUDY    24  20  84 S3        29.84R
BUTTE          FLURRIES  23  16  74 N6        29.70R WCI  16
MULLAN PASS    FOG       17  15  92 VRB3      29.72R VSB 1/4
ANACONDA         N/A     21  19  93 N3        29.74R
DEER LODGE       N/A     21  21 100 N7        29.76S WCI  13
HAMILTON         N/A     27  21  80 MISG      29.82R
RONAN            N/A     21  19  93 CALM      29.86S
$$

MTZ008-052>055-250200-
SOUTHWEST MONTANA

CITY           SKY/WX    TMP DP  RH WIND       PRES   REMARKS
BOZEMAN        CLOUDY    27  13  55 W15       29.71R WCI  15
DILLON         FAIR      17  14  88 SW15      29.73R WCI   2
ENNIS          CLOUDY    23  10  58 S16       29.76R WCI  10
W YELLOWSTONE  LGT SNOW  16  10  79 SW5G12    29.71R
THREE FORKS      N/A     26  15  63 SW10      29.75R WCI  16
$$

MTZ009-010-012-014-046-048-049-054-250200-
EAST SLOPES AND CENTRAL MONTANA

CITY           SKY/WX    TMP DP  RH WIND       PRES   REMARKS
CUT BANK       FAIR      19  12  74 W8        29.67R WCI   9
GREAT FALLS    FAIR      21  10  62 W8        29.69R WCI  11
MALMSTROM AFB  FAIR      22  15  75 SW14      29.70R WCI   9
HELENA         FAIR      29  18  63 CALM      29.73R
AUGUSTA        FAIR      21   9  60 NW6       29.67R WCI  13
BOWMANS CRNR   FAIR      24  10  57 W3        29.66R
CHOTEAU          N/A     23   9  54 W10       29.69S WCI  12
FAIRFIELD      FAIR      23  10  58 W10       29.68R WCI  12
POWER          FAIR      14  10  85 CALM      29.68R
RAYNESFORD     MOCLDY    26  10  50 W13       29.67S WCI  15
ULM            MOCLDY    24  12  60 W6        29.69S WCI  17
WHITE SULPHUR    N/A     23  14  68 SW7G13    29.66R WCI  15
$$

MTZ011-013-016-021-045-047-050-051-250200-
NORTH CENTRAL MONTANA

CITY           SKY/WX    TMP DP  RH WIND       PRES   REMARKS
HAVRE          CLOUDY    20  14  77 SW17      29.70S WCI   5
LEWISTOWN      FAIR      19   9  65 CALM      29.67R
N BAR RANCH    FAIR      19   7  58 NW14      29.67R WCI   6
CHINOOK          N/A     25  18  74 W13       29.70S WCI  13
GEYSER         FAIR      19  11  69 W9        29.66S WCI   9
STANFORD       FAIR      21  10  61 NW14      29.65S WCI   8
WINIFRED       FAIR      19   8  63 NW13      29.67R WCI   6
$$

MTZ017>020-022>027-061-062-250200-
NORTHEAST MONTANA

CITY           SKY/WX    TMP DP  RH WIND       PRES   REMARKS
GLASGOW        LGT SNOW  22  17  81 W16       29.64R WCI   8
GLENDIVE       FAIR      17  10  74 W13       29.64R WCI   4
JORDAN           N/A     18  10  71 NW15      29.66R WCI   4
MALTA          CLOUDY    23  19  86 W18       29.66S WCI   9
SIDNEY         FLURRIES  23  17  78 W17       29.60F WCI   9
WOLF POINT     CLOUDY    22  16  78 W14       29.64R WCI   9
PLENTYWOOD       N/A     21  19  93 W10       29.56S WCI  10
POPLAR           N/A     21  16  79 W9        29.63S WCI  11
$$

MTZ028>42-056>058-250200-
SOUTHCENTRAL AND SOUTHEAST MONTANA

CITY           SKY/WX    TMP DP  RH WIND       PRES   REMARKS
BAKER          FAIR      18  10  71 W17       29.62F WCI   3
BILLINGS       FAIR      26  12  55 SW14      29.69R WCI  14
LIVINGSTON     CLOUDY    27  13  55 SW29G40   29.68R WCI  11
MILES CITY     FAIR      15   9  76 W13       29.67R WCI   1
BIG TIMBER     CLOUDY    27  12  54 SW8G14    29.73R WCI  18
FORSYTH          N/A     25  12  58 W9        29.69R WCI  15
HARLOWTON      FAIR      23  15  69 W24       29.67R WCI   7
LAUREL           N/A     23   9  54 W5        29.72R
ROUNDUP          N/A     25   8  48 W7        29.63R WCI  17
$$

REGIONAL REPORTS...DAKOTAS

CITY           SKY/WX    TMP DP  RH WIND       PRES   REMARKS
WILLISTON      CLOUDY    20  15  81 SW9       29.59S WCI   9
MINOT          FAIR      18  11  74 S7        29.57F WCI   9
DICKINSON      FAIR      12   6  77 SW12      29.57F WCI  -2
BEACH          CLOUDY    18  10  73 W18       29.63F WCI   2
CROSBY         LGT SNOW  19  18  93 SW12      29.55F WCI   7
TIOGA          CLOUDY    18  16  93 SW8       29.57S WCI   7
WATFORD CITY   MOCLDY    16  10  79 SW6       29.59S WCI   7
BISMARCK       FAIR      13   9  84 CALM      29.64F
GRAND FORKS    LGT SNOW  16  14  92 E3        29.71F VSB 1
FARGO          LGT SNOW  19  17  92 N6        29.66F VSB 3/4 WCI  11
BUFFALO SD       N/A     15   8  73 W14       29.57S WCI   0
RAPID CITY     FAIR      16   9  74 N9        29.70R WCI   4
$$

REGIONAL REPORTS...WYOMING/IDAHO/WASHINGTON

CITY           SKY/WX    TMP DP  RH WIND       PRES   REMARKS
GILLETTE       FAIR      16   4  59 SW12      29.68S WCI   3
SHERIDAN       MOCLDY    17   5  59 SW7       29.69R WCI   8
BUFFALO WY     FAIR      20   2  45 S8        29.68R WCI  10
CODY           FAIR      26   2  35 W8G21     29.70R WCI  18
YELLOWSTONE LA   N/A     10   3  73 VRB3      29.71S
IDAHO FALLS    LGT SNOW  22  19  89 SW18      29.86R FOG     WCI   7
SALMON         FAIR      25  23  92 CALM      29.83S
BOISE          LGT SNOW  30  28  92 NW9       29.98  FOG     WCI  22
SPOKANE        FAIR      26  21  81 W9        29.94R WCI  17
$$

REGIONAL REPORTS...ALBERTA

CITY           SKY/WX    TMP DP  RH WIND       PRES   REMARKS
CALGARY        PTCLDY    27   1  33 W13G21    29.57S WCI  16
CARDSTON         N/A     27   7  43 W10G18      N/A  WCI  17
EDMONTON       PTCLDY    18   9  68 CALM      29.56F
FORT MCMURRAY  CLEAR     12   7  79 S3        29.61F
HIGH LEVEL     MOCLDY    19   9  63 S7        29.50F WCI  10
LETHBRIDGE     CLEAR     21  12  68 SW6       29.65F WCI  14
LLOYDMINSTER   MOCLDY    21  12  68 NW12      29.56R WCI   9
MEDICINE HAT   MOCLDY    21  14  73 W8        29.66S WCI  12
MILK RIVER       N/A     16   9  73 W8          N/A  WCI   5
PEACE RIVER    FLURRIES  18  12  79 S6        29.51F WCI   9
PINCHER CREEK  CLEAR     23   9  54 W24G30    29.63F WCI   7
WATERTON GATE    N/A     25   9  50 SW13G18     N/A  WCI  13
$$

REGIONAL REPORTS...SASKATCHEWAN

CITY           SKY/WX    TMP DP  RH WIND       PRES   REMARKS
CORONACH         N/A     23  19  86 W12         N/A  WCI  12
CYPRESS HILLS    N/A     16   3  57 NW12G17     N/A  WCI   3
ESTEVAN        MOCLDY    16  10  79 SW9       29.54F WCI   4
MOOSE JAW        N/A     23  18  80 W10         N/A  WCI  12
PRINCE ALBERT  FLURRIES  25  19  80 W8        29.52R WCI  16
REGINA         MOCLDY    21  19  93 W9        29.52S WCI  11
ROCKGLEN         N/A     21  19  93 W12         N/A  WCI   9
SASKATOON      MOCLDY    25  18  74 W12       29.54R WCI  14
VAL MARIE        N/A     23  19  86 W14         N/A  WCI  11
$$




USA.gov is the U.S. government's official web portal to all federal, state and local government web resources and services.